Content
SEND FEEDBACK

Daily
Averages
Monthly
Summary
United States of America

AGANA, GUAM


Home > North America > United States > Guam
Elevation: 74 meters     Latitude: 13 29N     Longitude: 144 48E

WEATHER
 
SELECT A DAY
Number of Records: 209,133;   Date Range: 1/1/95 - 8/28/14
 
SHARE

PRINT THIS DATA

[ ← Previous Day ]
WEATHER ALMANAC - 28 APRIL, 2014
[ Next Day → ]
[ °F ]   °C
Weather ElementAverageHighLow
Temperature27.8 °C31 °C (1:12 pm)25 °C (3:54 am)
Dewpoint23.9 °C25.6 °C (9:54 am)22.2 °C (2:54 pm)
Humidity79.6 %94 % (3:54 am)63 % (2:54 pm)
Barometer1008.1 hPa1010.2 hPa (8:34 am)1006.4 hPa (3:54 pm)
Wind Speed13.2 km/h24.1 km/h (10:54 am)
Weather ElementAverage
Visibility16.1 km
Wind DirectionSSE (158.3 °)

Weather ElementTotal
Precipitation---
Cooling Degree Days9.7 (Base 18.3)
Growing Degree Days18 (Base 10)
Averaged from 30 records on 28 April, 2014
WEATHER CONDITIONS BREAKOUT
WIND DIRECTION BREAKOUT
WEATHER BY HOUR - 28 APRIL, 2014
[ °F ]   °C
Local TimeTemperatureDewpointHumidityBarometerVisibilityWind DirectionWind SpeedGust SpeedPrecipitationEventsConditions
1:54 AM25.6 °C24.4 °C93 %1007.5 hPa16.1 kmENE (70°)11.1 km/hClear
2:54 AM26.1 °C23.9 °C88 %1007.5 hPa16.1 kmENE (70°)11.1 km/hOvercast
3:54 AM25 °C23.9 °C94 %1007.1 hPa16.1 kmNNE (20°)5.6 km/hPartly Cloudy
4:54 AM25.6 °C24.4 °C93 %1007.5 hPa16.1 kmNE (50°)9.3 km/hClear
5:54 AM25 °C23.9 °C94 %1007.5 hPa16.1 kmNorth (350°)7.4 km/hClear
6:54 AM26.7 °C24.4 °C87 %1008.5 hPa16.1 kmNE (50°)13 km/hClear
7:54 AM28.3 °C25 °C82 %1008.8 hPa16.1 kmNE (50°)13 km/hClear
8:34 AM27 °C24 °C84 %1010.2 hPa16.1 kmEast (80°)18.5 km/hMostly Cloudy
8:54 AM27.2 °C23.9 °C82 %1009.8 hPa16.1 kmENE (70°)20.4 km/hOvercast
9:54 AM28.3 °C25.6 °C85 %1009.5 hPa16.1 kmENE (60°)18.5 km/h0 mmMostly Cloudy
10:54 AM28.9 °C24.4 °C76 %1009.1 hPa16.1 kmNE (50°)24.1 km/hMostly Cloudy
11:04 AM28 °C24 °C79 %1009.8 hPa16.1 kmENE (70°)16.7 km/hMostly Cloudy
11:54 AM29.4 °C23.9 °C72 %1008.8 hPa16.1 kmENE (60°)18.5 km/hPartly Cloudy
12:54 PM30.6 °C23.3 °C65 %1008.1 hPa16.1 kmNE (40°)11.1 km/hScattered Clouds
1:12 PM31 °C24 °C66 %1008.5 hPa16.1 kmNNW (340°)13 km/hMostly Cloudy
1:54 PM30.6 °C23.9 °C67 %1007.5 hPa16.1 kmENE (60°)16.7 km/hMostly Cloudy
2:54 PM30 °C22.2 °C63 %1006.8 hPa16.1 kmNE (50°)13 km/hClear
3:54 PM29.4 °C22.2 °C65 %1006.4 hPa16.1 kmNE (40°)14.8 km/hScattered Clouds
4:18 PM29 °C24 °C74 %1007.1 hPa16.1 kmNNW (330°)16.7 km/hMostly Cloudy
4:28 PM29 °C24 °C74 %1007.1 hPa16.1 kmNNW (340°)14.8 km/hScattered Clouds
4:54 PM29.4 °C23.9 °C72 %1006.8 hPa16.1 kmNorth (360°)13 km/hClear
5:54 PM28.9 °C22.8 °C69 %1007.1 hPa16.1 kmNNE (30°)13 km/hScattered Clouds
6:06 PM28 °C23 °C74 %1008.1 hPa16.1 kmNNE (30°)9.3 km/hMostly Cloudy
6:26 PM27 °C23 °C79 %1008.5 hPa16.1 kmNorth (10°)13 km/hScattered Clouds
6:54 PM27.2 °C23.3 °C79 %1007.8 hPa16.1 kmNorth (360°)11.1 km/hPartly Cloudy
7:54 PM26.7 °C23.9 °C85 %1008.5 hPa16.1 kmNorth (360°)7.4 km/hClear
8:54 PM26.7 °C24.4 °C87 %1008.8 hPa16.1 kmNorth (360°)9.3 km/hPartly Cloudy
9:54 PM26.7 °C23.9 °C85 %1009.1 hPa16.1 kmNNW (340°)9.3 km/hClear
10:54 PM26.7 °C24.4 °C87 %1009.1 hPa16.1 kmNW (320°)9.3 km/hScattered Clouds
11:54 PM26.7 °C24.4 °C87 %1008.5 hPa16.1 kmNNW (330°)11.1 km/hScattered Clouds
Hourly data recorded from PGUM, located 0 kilometers away from Agana, Guam







STORIES FROM OUR PARTNERS